Location: Rodanthe
(35.5920°N, 75.4670°W)
Time: 07:04:28
(UTC-04:00)

ISS - All Passes

Search period start: 28 March 2015 00:00
Search period end: 07 April 2015 00:00
Orbit: 396 x 406 km, 51.6° (Epoch: 28 March)

Date Brightness Start Highest point End Pass type
(mag) Time Alt. Az. Time Alt. Az. Time Alt. Az.
28 Mar - 00:53:32 10° WNW 00:55:39 16° NNW 00:57:42 10° NNE night (unlit)
28 Mar - 05:46:05 10° NNW 05:48:37 21° NNE 05:51:10 10° E visible
28 Mar - 07:22:07 10° WNW 07:25:06 34° SW 07:28:03 10° SSE daylight
28 Mar - 22:22:56 10° S 22:25:42 26° SE 22:28:30 10° ENE night (unlit)
28 Mar - 23:59:16 10° W 00:02:04 26° NNW 00:04:51 10° NNE night (unlit)
29 Mar - 04:53:23 10° N 04:55:00 13° NNE 04:56:40 10° ENE visible
29 Mar - 06:28:34 10° NW 06:31:48 82° SW 06:35:01 10° SE visible
29 Mar - 21:31:04 10° SSE 21:32:27 12° SE 21:33:58 10° E night (unlit)
29 Mar - 23:05:24 10° WSW 23:08:34 49° NW 23:11:45 10° NE night (unlit)
30 Mar - 05:35:16 10° NW 05:38:23 44° NE 05:41:29 10° ESE visible
30 Mar - 07:12:47 10° W 07:14:32 14° SW 07:16:10 10° SSW daylight
30 Mar - 22:11:55 10° SW 22:15:09 73° SE 22:18:24 10° NE night (unlit)
30 Mar - 23:50:01 10° WNW 23:51:54 14° NNW 23:53:44 10° N night (unlit)
31 Mar - 04:42:10 10° NNW 04:44:50 23° NNE 04:47:32 10° E visible
31 Mar - 06:18:23 10° WNW 06:21:15 29° SW 06:24:04 10° SSE visible
31 Mar - 21:18:52 10° SSW 21:21:47 31° SE 21:24:44 10° ENE night (unlit)
31 Mar - 22:55:32 10° W 22:58:13 23° NNW 23:00:53 10° NNE night (unlit)
01 Apr - 03:49:17 10° N 03:51:09 15° NNE 03:53:05 10° ENE visible
01 Apr - 05:24:40 10° NW 05:27:53 68° SW 05:31:04 10° SE visible
01 Apr - 20:26:35 10° SSE 20:28:27 15° SE 20:30:25 10° E visible
01 Apr - 22:01:29 10° WSW 22:04:36 42° NW 22:07:44 10° NE visible
02 Apr - 04:31:14 10° NW 04:34:24 52° NE 04:37:33 10° ESE visible
02 Apr - 06:09:17 10° WSW 06:10:29 11° SW 06:11:33 10° SSW visible
02 Apr - 21:07:49 10° SW 21:11:05 87° SE 21:14:21 10° NE visible
02 Apr - 22:46:15 10° NW 22:47:54 13° NNW 22:49:28 10° N night (unlit)
03 Apr - 03:37:59 10° NNW 03:40:47 27° NNE 03:43:36 10° E night (unlit)
03 Apr - 05:14:25 10° WNW 05:17:07 24° SW 05:19:47 10° S visible
03 Apr - 20:14:35 10° SSW 20:17:37 37° SE 20:20:40 10° ENE visible
03 Apr - 21:51:33 10° W 21:54:06 20° NNW 21:56:38 10° NNE visible
04 Apr - 02:44:57 10° NNW 02:47:02 16° NNE 02:49:11 10° ENE night (unlit)
04 Apr - 04:20:31 10° NW 04:23:41 56° SW 04:26:50 10° SE night (unlit)
04 Apr - 19:21:59 10° S 19:24:10 17° SE 19:26:27 10° E daylight
04 Apr - 20:57:19 10° WSW 21:00:23 36° NW 21:03:27 10° NNE visible
05 Apr - 01:52:31 10° N 01:53:10 10° NNE 01:53:53 10° NE night (unlit)
05 Apr - 03:26:56 10° NW 03:30:09 62° NE 03:33:20 10° ESE night (unlit)
05 Apr - 20:03:29 10° SW 20:06:45 79° NW 20:10:01 10° NE visible
05 Apr - 21:42:16 10° NW 21:43:37 12° NNW 21:44:55 10° N visible
06 Apr - 02:33:33 10° NNW 02:36:28 30° NE 02:39:23 10° E night (unlit)
06 Apr - 04:10:12 10° WNW 04:12:45 21° SW 04:15:12 10° S night (unlit)
06 Apr - 19:10:03 10° SSW 19:13:10 44° SE 19:16:18 10° ENE daylight
06 Apr - 20:47:19 10° WNW 20:49:43 18° NNW 20:52:06 10° NNE visible
